TimeEST,TemperatureF,Dew PointF,Humidity,Sea Level PressureIn,VisibilityMPH,Wind Direction,Wind SpeedMPH,Gust SpeedMPH,PrecipitationIn,Events,Conditions,WindDirDegrees,DateUTC
12:15 AM,28.4,17.6,64,30.14,10.0,Calm,Calm,-,N/A,,Clear,0,2012-12-23 05:15:00
12:35 AM,28.4,17.6,64,30.14,10.0,Calm,Calm,-,N/A,,Clear,0,2012-12-23 05:35:00
12:55 AM,28.4,17.6,64,30.14,10.0,Calm,Calm,-,N/A,,Clear,0,2012-12-23 05:55:00
1:15 AM,30.2,17.6,60,30.14,10.0,Calm,Calm,-,N/A,,Clear,0,2012-12-23 06:15:00
1:35 AM,28.4,19.4,69,30.14,10.0,Calm,Calm,-,N/A,,Clear,0,2012-12-23 06:35:00
1:55 AM,28.4,19.4,69,30.14,10.0,Calm,Calm,-,N/A,,Clear,0,2012-12-23 06:55:00
2:35 AM,24.8,19.4,80,30.14,10.0,Calm,Calm,-,N/A,,Clear,0,2012-12-23 07:35:00
3:15 AM,28.4,19.4,69,30.16,10.0,Calm,Calm,-,N/A,,Clear,0,2012-12-23 08:15:00
3:35 AM,26.6,19.4,74,30.16,10.0,Calm,Calm,-,N/A,,Clear,0,2012-12-23 08:35:00
3:55 AM,26.6,19.4,74,30.15,10.0,Calm,Calm,-,N/A,,Clear,0,2012-12-23 08:55:00
4:15 AM,26.6,19.4,74,30.14,10.0,Calm,Calm,-,N/A,,Clear,0,2012-12-23 09:15:00
4:35 AM,24.8,19.4,80,30.14,10.0,Calm,Calm,-,N/A,,Clear,0,2012-12-23 09:35:00
4:55 AM,24.8,19.4,80,30.13,10.0,Calm,Calm,-,N/A,,Clear,0,2012-12-23 09:55:00
5:15 AM,24.8,19.4,80,30.14,10.0,Calm,Calm,-,N/A,,Clear,0,2012-12-23 10:15:00
5:35 AM,24.8,19.4,80,30.15,10.0,Calm,Calm,-,N/A,,Clear,0,2012-12-23 10:35:00
5:55 AM,24.8,19.4,80,30.16,10.0,Calm,Calm,-,N/A,,Clear,0,2012-12-23 10:55:00
6:15 AM,24.8,19.4,80,30.15,10.0,Calm,Calm,-,N/A,,Clear,0,2012-12-23 11:15:00
6:35 AM,23.0,19.4,86,30.17,10.0,Calm,Calm,-,N/A,,Clear,0,2012-12-23 11:35:00
6:55 AM,24.8,19.4,80,30.17,10.0,Calm,Calm,-,N/A,,Clear,0,2012-12-23 11:55:00
7:55 AM,24.8,19.4,80,30.17,10.0,Calm,Calm,-,N/A,,Clear,0,2012-12-23 12:55:00
8:55 AM,28.4,21.2,74,30.18,10.0,Calm,Calm,-,N/A,,Clear,0,2012-12-23 13:55:00
9:55 AM,35.6,21.2,56,30.18,10.0,Calm,Calm,-,N/A,,Clear,0,2012-12-23 14:55:00
11:55 AM,48.2,10.4,22,30.13,10.0,SSW,4.6,-,N/A,,Clear,200,2012-12-23 16:55:00
1:55 PM,53.6,12.2,19,30.09,10.0,SW,5.8,-,N/A,,Clear,220,2012-12-23 18:55:00
2:55 PM,53.6,14.0,21,30.07,10.0,SW,4.6,-,N/A,,Clear,220,2012-12-23 19:55:00
3:55 PM,53.6,15.8,22,30.07,10.0,SSW,5.8,-,N/A,,Clear,210,2012-12-23 20:55:00
4:55 PM,51.8,15.8,24,30.08,10.0,Calm,Calm,-,N/A,,Clear,0,2012-12-23 21:55:00
6:55 PM,44.6,24.8,46,30.07,10.0,Calm,Calm,-,N/A,,Mostly Cloudy,0,2012-12-23 23:55:00
7:55 PM,44.6,23.0,43,30.07,10.0,Calm,Calm,-,N/A,,Mostly Cloudy,0,2012-12-24 00:55:00
8:15 PM,44.6,26.6,49,30.07,10.0,Calm,Calm,-,N/A,,Overcast,0,2012-12-24 01:15:00
8:35 PM,46.4,26.6,46,30.07,10.0,Calm,Calm,-,N/A,,Overcast,0,2012-12-24 01:35:00
8:55 PM,46.4,26.6,46,30.07,10.0,Calm,Calm,-,N/A,,Overcast,0,2012-12-24 01:55:00
9:15 PM,46.4,30.2,53,30.07,10.0,SSW,4.6,-,N/A,,Overcast,210,2012-12-24 02:15:00
9:35 PM,50.0,28.4,43,30.08,10.0,SW,5.8,-,N/A,,Mostly Cloudy,220,2012-12-24 02:35:00
9:55 PM,50.0,28.4,43,30.08,10.0,SSW,5.8,-,N/A,,Scattered Clouds,210,2012-12-24 02:55:00
10:15 PM,50.0,28.4,43,30.08,10.0,SW,5.8,-,N/A,,Scattered Clouds,220,2012-12-24 03:15:00
10:55 PM,51.8,28.4,41,30.07,10.0,SW,8.1,-,N/A,,Mostly Cloudy,220,2012-12-24 03:55:00
11:15 PM,51.8,28.4,41,30.08,10.0,SW,5.8,-,N/A,,Overcast,230,2012-12-24 04:15:00
11:35 PM,50.0,30.2,47,30.07,10.0,SW,5.8,-,N/A,,Mostly Cloudy,220,2012-12-24 04:35:00
11:55 PM,50.0,30.2,47,30.07,10.0,SW,5.8,-,N/A,,Mostly Cloudy,220,2012-12-24 04:55:00